When you browse on this site, cookies collect data to enhance your experience and personalize the content and advertising you see.
Visit our Privacy Policy to learn more. By continuing to use the site, you agree to this use of cookies and data.
  • In Hungary
  • List of Countries
  • For 7 days
  • Water Temperature
  • Weather Map
  • News
  • Weather Widgets
  • user-avatar
    Login

    Hourly Weather Kutema

    Today, 22 October, Tuesday

    Time Temperature Precipitation Wind Pressure Humidity
    00:00 +8°C° 0 mm 9 mps 752 mmHg 85%
    01:00 +8°C° 1.2 mm 9 mps 752 mmHg 87%
    02:00 +8°C° 1.2 mm 9 mps 751 mmHg 89%
    03:00 +9°C° 1.2 mm 8 mps 751 mmHg 91%
    04:00 +9°C° 1.8 mm 7 mps 751 mmHg 93%
    05:00 +9°C° 1.8 mm 5 mps 751 mmHg 94%
    06:00 +10°C° 1.8 mm 3 mps 751 mmHg 96%
    07:00 +10°C° 0 mm 3 mps 752 mmHg 92%
    08:00 +10°C° 0 mm 4 mps 752 mmHg 89%
    09:00 +10°C° 0 mm 4 mps 753 mmHg 86%
    10:00 +10°C° 0 mm 4 mps 753 mmHg 83%
    11:00 +10°C° 0 mm 4 mps 753 mmHg 79%
    12:00 +10°C° 0 mm 4 mps 754 mmHg 75%
    13:00 +10°C° 0 mm 4 mps 754 mmHg 74%
    14:00 +8°C° 0 mm 4 mps 754 mmHg 72%
    15:00 +8°C° 0 mm 4 mps 754 mmHg 71%
    16:00 +7°C° 0 mm 4 mps 754 mmHg 74%
    17:00 +7°C° 0 mm 3 mps 755 mmHg 77%
    18:00 +7°C° 0 mm 2 mps 755 mmHg 80%
    19:00 +6°C° 0 mm 2 mps 755 mmHg 82%
    20:00 +5°C° 0 mm 2 mps 755 mmHg 85%
    21:00 +6°C° 0 mm 1 mps 755 mmHg 87%
    22:00 +6°C° 0 mm 1 mps 755 mmHg 87%
    23:00 +5°C° 0 mm 1 mps 755 mmHg 88%

    Tomorrow, 23 October, Wednesday

    Time Temperature Precipitation Wind Pressure Humidity
    00:00 +4°C° 0 mm 2 mps 755 mmHg 89%
    01:00 +4°C° 0 mm 2 mps 755 mmHg 90%
    02:00 +4°C° 0 mm 2 mps 755 mmHg 90%
    03:00 +4°C° 0 mm 2 mps 755 mmHg 91%
    04:00 +3°C° 0 mm 2 mps 755 mmHg 92%
    05:00 +2°C° 0 mm 3 mps 755 mmHg 93%
    06:00 +2°C° 0 mm 3 mps 754 mmHg 94%
    07:00 +3°C° 0 mm 3 mps 754 mmHg 89%
    08:00 +4°C° 0 mm 4 mps 754 mmHg 85%
    09:00 +5°C° 0 mm 4 mps 754 mmHg 80%
    10:00 +6°C° 0 mm 5 mps 753 mmHg 77%
    11:00 +7°C° 0 mm 6 mps 753 mmHg 75%
    12:00 +8°C° 0 mm 6 mps 752 mmHg 72%
    13:00 +9°C° 0 mm 6 mps 752 mmHg 74%
    14:00 +9°C° 0 mm 6 mps 751 mmHg 76%
    15:00 +9°C° 0 mm 6 mps 751 mmHg 77%
    16:00 +9°C° 0 mm 6 mps 751 mmHg 79%
    17:00 +9°C° 0 mm 5 mps 750 mmHg 81%
    18:00 +8°C° 0 mm 5 mps 750 mmHg 83%
    19:00 +8°C° 0.1 mm 5 mps 750 mmHg 86%
    20:00 +10°C° 0.1 mm 4 mps 750 mmHg 89%
    21:00 +10°C° 0.1 mm 4 mps 750 mmHg 92%
    22:00 +10°C° 0.1 mm 4 mps 750 mmHg 92%
    23:00 +10°C° 0.1 mm 4 mps 750 mmHg 92%

    Day after tomorrow, 24 October, Thursday

    Time Temperature Precipitation Wind Pressure Humidity
    00:00 +10°C° 0.1 mm 4 mps 751 mmHg 92%
    01:00 +8°C° 0 mm 4 mps 751 mmHg 92%
    02:00 +7°C° 0 mm 4 mps 751 mmHg 93%
    03:00 +7°C° 0 mm 3 mps 751 mmHg 93%
    04:00 +7°C° 0 mm 3 mps 752 mmHg 93%
    05:00 +7°C° 0 mm 3 mps 752 mmHg 93%
    06:00 +5°C° 0 mm 3 mps 752 mmHg 92%
    07:00 +7°C° 0 mm 3 mps 753 mmHg 89%
    08:00 +8°C° 0 mm 3 mps 753 mmHg 86%
    09:00 +9°C° 0 mm 2 mps 753 mmHg 83%
    10:00 +9°C° 0 mm 2 mps 753 mmHg 80%
    11:00 +9°C° 0 mm 2 mps 754 mmHg 77%
    12:00 +10°C° 0 mm 2 mps 754 mmHg 74%
    13:00 +10°C° 0 mm 2 mps 754 mmHg 75%
    14:00 +10°C° 0 mm 2 mps 754 mmHg 76%
    15:00 +11°C° 0 mm 1 mps 754 mmHg 77%
    16:00 +10°C° 0 mm 1 mps 755 mmHg 79%
    17:00 +9°C° 0 mm 1 mps 755 mmHg 82%
    18:00 +9°C° 0 mm 1 mps 755 mmHg 85%
    19:00 +8°C° 0 mm 1 mps 755 mmHg 86%
    20:00 +8°C° 0 mm 1 mps 755 mmHg 88%
    21:00 +8°C° 0 mm 1 mps 756 mmHg 89%
    22:00 +7°C° 0 mm 1 mps 756 mmHg 89%
    23:00 +7°C° 0 mm 1 mps 755 mmHg 89%

    25 October, Friday

    Time Temperature Precipitation Wind Pressure Humidity
    00:00 +7°C° 0 mm 1 mps 755 mmHg 90%
    01:00 +7°C° 0 mm 1 mps 755 mmHg 90%
    02:00 +7°C° 0 mm 1 mps 755 mmHg 90%
    03:00 +7°C° 0 mm 1 mps 755 mmHg 90%
    04:00 +7°C° 0 mm 1 mps 755 mmHg 91%
    05:00 +7°C° 0 mm 1 mps 755 mmHg 91%
    06:00 +6°C° 0 mm 1 mps 755 mmHg 92%
    07:00 +7°C° 0 mm 1 mps 755 mmHg 89%
    08:00 +8°C° 0 mm 1 mps 755 mmHg 87%
    09:00 +8°C° 0 mm 1 mps 756 mmHg 84%
    10:00 +8°C° 0 mm 2 mps 756 mmHg 83%
    11:00 +9°C° 0 mm 3 mps 756 mmHg 82%
    12:00 +9°C° 0 mm 3 mps 755 mmHg 80%
    13:00 +9°C° 0 mm 3 mps 755 mmHg 80%
    14:00 +10°C° 0 mm 3 mps 755 mmHg 80%
    15:00 +10°C° 0 mm 3 mps 755 mmHg 79%
    16:00 +9°C° 0 mm 3 mps 756 mmHg 82%
    17:00 +8°C° 0 mm 3 mps 756 mmHg 84%
    18:00 +8°C° 0 mm 3 mps 756 mmHg 87%
    19:00 +8°C° 0 mm 3 mps 756 mmHg 88%
    20:00 +8°C° 0 mm 2 mps 756 mmHg 89%
    21:00 +8°C° 0 mm 2 mps 757 mmHg 90%
    22:00 +7°C° 0 mm 2 mps 757 mmHg 90%
    23:00 +7°C° 0 mm 2 mps 757 mmHg 90%

    26 October, Saturday

    Time Temperature Precipitation Wind Pressure Humidity
    00:00 +7°C° 0 mm 1 mps 757 mmHg 91%
    01:00 +7°C° 0 mm 1 mps 757 mmHg 91%
    02:00 +7°C° 0 mm 1 mps 757 mmHg 92%
    03:00 +6°C° 0 mm 1 mps 757 mmHg 92%
    04:00 +6°C° 0 mm 1 mps 757 mmHg 92%
    05:00 +6°C° 0 mm 1 mps 757 mmHg 92%
    06:00 +5°C° 0 mm 2 mps 757 mmHg 92%
    07:00 +6°C° 0 mm 2 mps 758 mmHg 90%
    08:00 +5°C° 0 mm 3 mps 758 mmHg 88%
    09:00 +7°C° 0 mm 3 mps 758 mmHg 86%
    10:00 +7°C° 0 mm 4 mps 757 mmHg 83%
    11:00 +8°C° 0 mm 5 mps 757 mmHg 80%
    12:00 +10°C° 0 mm 5 mps 757 mmHg 76%
    13:00 +10°C° 0 mm 5 mps 756 mmHg 79%
    14:00 +10°C° 0 mm 5 mps 756 mmHg 81%
    15:00 +10°C° 0 mm 5 mps 755 mmHg 84%
    16:00 +10°C° 0 mm 6 mps 755 mmHg 86%
    17:00 +10°C° 0 mm 6 mps 755 mmHg 88%
    18:00 +9°C° 0 mm 6 mps 755 mmHg 90%
    19:00 +9°C° 0 mm 6 mps 754 mmHg 90%
    20:00 +9°C° 0 mm 6 mps 754 mmHg 91%
    21:00 +9°C° 0 mm 6 mps 754 mmHg 91%
    22:00 +9°C° 0 mm 6 mps 753 mmHg 89%
    23:00 +9°C° 0 mm 6 mps 753 mmHg 88%

    27 October, Sunday

    Time Temperature Precipitation Wind Pressure Humidity
    00:00 +8°C° 0 mm 5 mps 753 mmHg 86%
    01:00 +8°C° 0 mm 6 mps 753 mmHg 85%
    02:00 +8°C° 0 mm 6 mps 753 mmHg 83%
    03:00 +8°C° 0 mm 6 mps 752 mmHg 81%
    04:00 +7°C° 0 mm 6 mps 752 mmHg 80%
    05:00 +7°C° 0 mm 6 mps 751 mmHg 79%
    06:00 +6°C° 0 mm 7 mps 751 mmHg 78%
    07:00 +8°C° 0 mm 7 mps 751 mmHg 74%
    08:00 +9°C° 0 mm 7 mps 751 mmHg 70%
    09:00 +9°C° 0 mm 8 mps 751 mmHg 67%
    10:00 +10°C° 0 mm 8 mps 750 mmHg 62%
    11:00 +12°C° 0 mm 8 mps 750 mmHg 58%
    12:00 +13°C° 0 mm 9 mps 750 mmHg 54%
    13:00 +13°C° 0 mm 8 mps 749 mmHg 54%
    14:00 +13°C° 0 mm 8 mps 749 mmHg 53%
    15:00 +13°C° 0 mm 8 mps 748 mmHg 53%
    16:00 +12°C° 0 mm 8 mps 748 mmHg 56%
    17:00 +12°C° 0 mm 8 mps 748 mmHg 59%
    18:00 +11°C° 0 mm 8 mps 748 mmHg 63%
    19:00 +11°C° 0 mm 8 mps 748 mmHg 64%
    20:00 +11°C° 0 mm 8 mps 747 mmHg 65%
    21:00 +11°C° 0 mm 8 mps 747 mmHg 67%
    22:00 +11°C° 0 mm 8 mps 746 mmHg 68%
    23:00 +10°C° 0 mm 8 mps 746 mmHg 68%

    28 October, Monday

    Time Temperature Precipitation Wind Pressure Humidity
    00:00 +10°C° 0 mm 8 mps 746 mmHg 69%
    01:00 +10°C° 0 mm 8 mps 745 mmHg 70%
    02:00 +10°C° 0 mm 8 mps 745 mmHg 71%
    03:00 +9°C° 0 mm 8 mps 744 mmHg 72%
    04:00 +9°C° 0 mm 8 mps 744 mmHg 70%
    05:00 +9°C° 0 mm 8 mps 743 mmHg 69%
    06:00 +9°C° 0 mm 8 mps 743 mmHg 67%
    07:00 +9°C° 0 mm 8 mps 743 mmHg 67%
    08:00 +9°C° 0 mm 8 mps 743 mmHg 68%
    09:00 +9°C° 0 mm 8 mps 743 mmHg 68%
    10:00 +8°C° 1.2 mm 7 mps 743 mmHg 75%
    11:00 +8°C° 1.2 mm 6 mps 743 mmHg 83%
    12:00 +7°C° 1.2 mm 5 mps 744 mmHg 90%
    13:00 +7°C° 0.4 mm 4 mps 744 mmHg 88%
    14:00 +6°C° 0.4 mm 4 mps 744 mmHg 87%
    15:00 +7°C° 0.4 mm 3 mps 744 mmHg 85%
    16:00 +7°C° 0 mm 3 mps 745 mmHg 86%
    17:00 +6°C° 0 mm 2 mps 745 mmHg 87%
    18:00 +5°C° 0 mm 2 mps 745 mmHg 88%
    19:00 +5°C° 0 mm 2 mps 745 mmHg 88%
    20:00 +4°C° 0 mm 2 mps 745 mmHg 89%
    21:00 +4°C° 0 mm 2 mps 745 mmHg 89%
    22:00 +4°C° 0 mm 2 mps 745 mmHg 90%
    23:00 +4°C° 0 mm 2 mps 745 mmHg 91%
    Show more